Content
SEND FEEDBACK

Daily
Averages
Monthly
Summary
United States of America

DOWNIEVILLE, CALIFORNIA


Home > North America > United States > California
Elevation: 5045 feet     Latitude: 39 34N     Longitude: 120 38W

WEATHER
 
SELECT A DAY
Number of Records: 234,844;   Date Range: 1/1/95 - 11/22/14
 
SHARE

PRINT THIS DATA

[ ← Previous Day ]
WEATHER ALMANAC - JUNE 24, 2013
[ Next Day → ]
[ °C ]   °F
We're sorry. There is no daily almanac available for Downieville, California on June 24, 2013.
WEATHER BY HOUR - JUNE 24, 2013
[ °C ]   °F
Local TimeTemperatureDewpointHumidityBarometerVisibilityWind DirectionWind SpeedGust SpeedPrecipitationEventsConditions
12:29 AM51.8 °F48.2 °F88 %29.92 in6.0 miSSE (150°)8.1 mph0.00 inRainLight Rain
12:44 AM51.8 °F50.0 °F94 %29.92 in2.5 miSouth (170°)8.1 mph0.02 inRainLight Rain
12:47 AM51.8 °F50.0 °F94 %29.92 in1.0 miSouth (170°)8.1 mph0.02 inRainLight Rain
12:52 AM51.1 °F50.0 °F96 %29.78 in0.5 miSouth (180°)8.1 mph0.03 inFog-RainRain
1:34 AM51.8 °F50.0 °F94 %29.91 in1.0 miSSE (160°)6.9 mph0.09 inRainRain
1:48 AM51.8 °F50.0 °F94 %29.91 in0.8 miSouth (190°)9.2 mph0.12 inRainLight Rain
1:52 AM51.1 °F50.0 °F96 %29.75 in0.8 miSouth (190°)8.1 mph0.13 inRainRain
2:16 AM50.0 °F50.0 °F100 %29.90 in0.2 miSouth (190°)9.2 mph0.02 inFog-RainLight Rain
2:47 AM50.0 °F50.0 °F100 %29.90 in0.2 miSouth (180°)9.2 mph0.03 inFogFog
2:52 AM50.0 °F50.0 °F100 %29.73 in0.2 miSouth (180°)11.5 mph18.4 mph0.03 inFogFog
3:32 AM48.2 °F48.2 °F100 %29.90 in0.5 miSouth (180°)12.7 mph18.4 mphFogFog
3:52 AM48.9 °F48.9 °F100 %29.73 in0.5 miSouth (180°)11.5 mphFogFog
4:10 AM48.2 °F48.2 °F100 %29.88 in1.0 miSouth (170°)13.8 mph0.00 inRainLight Rain
4:18 AM48.2 °F48.2 °F100 %29.88 in0.5 miSouth (180°)11.5 mph0.00 inFogFog
4:27 AM48.2 °F48.2 °F100 %29.89 in0.2 miSouth (170°)12.7 mph20.7 mph0.00 inFogFog
4:48 AM48.2 °F48.2 °F100 %29.90 in0.8 miSSW (200°)9.2 mph20.7 mph0.00 inMist
4:52 AM48.9 °F48.0 °F97 %29.75 in0.5 miSSW (200°)9.2 mph0.00 inFogFog
5:52 AM48.0 °F48.0 °F100 %29.75 in0.5 miSSW (200°)10.4 mph18.4 mph0.02 inFogFog
6:12 AM48.2 °F48.2 °F100 %29.90 in0.2 miSSW (200°)12.7 mph0.00 inFogFog
6:52 AM48.0 °F48.0 °F100 %29.77 in0.2 miSSW (200°)11.5 mph18.4 mph0.00 inFogFog
7:47 AM48.2 °F48.2 °F100 %29.92 in0.2 miSSW (200°)10.4 mph17.3 mph0.02 inFogFog
7:52 AM48.0 °F46.9 °F96 %29.79 in0.2 miSouth (190°)11.5 mph17.3 mph0.02 inFogFog
8:02 AM46.4 °F46.4 °F100 %29.92 in0.2 miSouth (190°)12.7 mph20.7 mph0.01 inFog-RainLight Rain
8:52 AM48.0 °F48.0 °F100 %29.81 in0.2 miSouth (180°)8.1 mph0.04 inFog-RainLight Rain
9:07 AM48.2 °F48.2 °F100 %30.41 in0.2 miSouth (170°)12.7 mph
9:23 AM46.4 °F46.4 °F100 %29.95 in0.5 miSSW (200°)9.2 mph0.02 inFog-RainLight Rain
9:24 AM46.4 °F46.4 °F100 %30.41 in0.5 miSouth (190°)9.2 mph
9:38 AM46.4 °F46.4 °F100 %30.41 in1.0 miSouth (190°)11.5 mph
9:39 AM46.4 °F46.4 °F100 %29.95 in1.5 miSouth (180°)10.4 mph23.0 mph0.05 inRainLight Rain
9:41 AM46.4 °F46.4 °F100 %30.41 in2.0 miSouth (180°)11.5 mphOvercast
9:42 AM46.4 °F46.4 °F100 %30.41 in1.8 miSouth (180°)13.8 mphOvercast
9:46 AM46.4 °F46.4 °F100 %29.95 in0.8 miSouth (180°)10.4 mph0.05 inRainLight Rain
9:47 AM46.4 °F46.4 °F100 %30.41 in0.8 miSouth (180°)9.2 mphOvercast
9:52 AM46.9 °F46.9 °F100 %29.84 in0.5 miSSW (200°)12.7 mph20.7 mph0.05 inFog-RainLight Rain
9:55 AM46.4 °F46.4 °F100 %30.41 in0.8 miSouth (190°)12.7 mph18.4 mphOvercast
9:56 AM46.4 °F46.4 °F100 %30.41 in1.0 miSouth (190°)10.4 mphOvercast
9:58 AM46.4 °F46.4 °F100 %29.95 in1.8 miSouth (180°)9.2 mph20.7 mph0.00 inRainLight Rain
10:00 AM46.4 °F46.4 °F100 %29.95 in4.0 miSouth (180°)10.4 mph20.7 mph0.01 inRainLight Rain
10:01 AM46.4 °F46.4 °F100 %30.41 in4.0 miSouth (180°)10.4 mphOvercast
10:07 AM46.4 °F46.4 °F100 %30.41 in2.5 miSouth (190°)10.4 mphOvercast
10:09 AM46.4 °F46.4 °F100 %29.95 in1.8 miSouth (190°)10.4 mph0.01 inRainLight Rain
10:10 AM46.4 °F46.4 °F100 %30.41 in1.8 miSouth (190°)10.4 mphOvercast
10:15 AM46.4 °F46.4 °F100 %30.41 in2.0 miSouth (180°)8.1 mphOvercast
10:16 AM46.4 °F46.4 °F100 %29.95 in3.0 miSouth (190°)9.2 mph0.01 inRainLight Rain
10:17 AM46.4 °F46.4 °F100 %30.41 in3.0 miSouth (190°)8.1 mphOvercast
10:35 AM46.4 °F46.4 °F100 %30.41 in2.5 miSouth (170°)11.5 mphOvercast
10:36 AM46.4 °F46.4 °F100 %29.96 in1.8 miSouth (170°)12.7 mph0.02 inRainLight Rain
10:37 AM46.4 °F46.4 °F100 %30.41 in1.8 miSouth (170°)12.7 mphOvercast
10:52 AM46.9 °F46.9 °F100 %29.85 in1.8 miSouth (180°)13.8 mph19.6 mph0.03 inRainLight Rain
10:54 AM46.4 °F46.4 °F100 %30.41 in2.0 miSouth (180°)13.8 mphOvercast
10:55 AM46.4 °F46.4 °F100 %30.41 in2.5 miSouth (170°)12.7 mph10.00 inOvercast
10:56 AM46.4 °F46.4 °F100 %30.41 in4.0 miSSE (160°)10.4 mphOvercast
11:03 AM46.4 °F46.4 °F100 %29.96 in2.5 miSouth (170°)12.7 mph19.6 mph0.01 inRainRain
11:04 AM46.4 °F46.4 °F100 %30.41 in2.5 miSouth (170°)12.7 mph0.01 inOvercast
11:13 AM46.4 °F46.4 °F100 %30.41 in3.0 miSouth (170°)10.4 mph0.02 inOvercast
11:18 AM46.4 °F46.4 °F100 %30.41 in2.5 miSouth (170°)8.1 mph0.03 inOvercast
11:23 AM46.4 °F46.4 °F100 %30.42 in1.8 miSSW (210°)5.8 mph0.04 inOvercast
11:28 AM46.4 °F46.4 °F100 %29.97 in1.5 miSouth (190°)8.1 mph0.06 inRainRain
11:36 AM46.4 °F46.4 °F100 %29.97 in1.2 miSouth (180°)6.9 mph0.09 inRainRain
11:52 AM46.9 °F46.9 °F100 %29.86 in2.5 miSouth (190°)8.1 mph0.13 inRainRain
11:55 AM46.4 °F46.4 °F100 %30.42 in2.5 miSSW (200°)10.4 mph10.01 inOvercast
11:56 AM46.4 °F46.4 °F100 %30.42 in1.8 miSSW (210°)6.9 mphOvercast
11:57 AM46.4 °F46.4 °F100 %29.97 in1.0 miSSW (210°)6.9 mph0.02 inRainRain
12:00 PM46.4 °F46.4 °F100 %30.42 in0.8 miVariable3.5 mph0.01 inOvercast
12:03 PM46.4 °F46.4 °F100 %29.98 in0.2 miVariable4.6 mph0.03 inFog-RainRain
12:04 PM46.4 °F46.4 °F100 %30.42 in0.2 miVariable4.6 mph0.02 in
12:11 PM46.4 °F46.4 °F100 %30.41 in0.5 miSouth (190°)9.2 mph0.03 in
12:16 PM46.4 °F46.4 °F100 %29.98 in0.5 miSouth (190°)8.1 mph0.05 inFog-RainLight Rain
12:20 PM46.4 °F46.4 °F100 %30.41 in0.2 miSouth (190°)6.9 mph0.04 in
12:25 PM46.4 °F46.4 °F100 %29.98 in0.2 miSouth (180°)12.7 mph18.4 mph0.06 inFog-RainRain
12:29 PM46.4 °F46.4 °F100 %30.41 in0.5 miSouth (180°)10.4 mph0.05 in
12:32 PM48.2 °F46.4 °F93 %30.41 in0.2 miSouth (170°)11.5 mph0.06 in
12:52 PM48.0 °F48.0 °F100 %29.86 in0.2 miSSW (200°)8.1 mph0.10 inFog-RainRain
12:55 PM48.2 °F48.2 °F100 %30.42 in0.2 miSSW (200°)8.1 mph9.99 in
1:04 PM48.2 °F46.4 °F93 %30.42 in0.5 miSSW (200°)15.0 mph0.03 in
1:09 PM48.2 °F46.4 °F93 %29.99 in0.8 miSSW (200°)8.1 mph23.0 mph0.05 inRainLight Rain
1:32 PM46.4 °F46.4 °F100 %30.42 in0.2 miSouth (180°)12.7 mph0.12 in
1:37 PM46.4 °F46.4 °F100 %29.99 in0.2 miSouth (180°)12.7 mph0.14 inFog-RainRain
1:46 PM46.4 °F46.4 °F100 %30.42 in0.5 miSouth (180°)12.7 mph0.15 in
1:52 PM46.0 °F45.0 °F96 %29.88 in0.8 miSouth (180°)11.5 mph19.6 mph0.16 inRainLight Rain
1:55 PM46.4 °F44.6 °F93 %30.42 in0.5 miSouth (180°)9.2 mph10.00 in
2:22 PM46.4 °F46.4 °F100 %30.42 in1.0 miSSE (160°)11.5 mph20.7 mph0.05 inOvercast
2:27 PM46.4 °F46.4 °F100 %30.00 in1.0 miSSE (160°)12.7 mph20.7 mph0.07 inRainRain
2:29 PM46.4 °F46.4 °F100 %30.42 in0.8 miSSE (160°)12.7 mph0.07 inOvercast
2:34 PM46.4 °F46.4 °F100 %29.99 in0.5 miSSE (160°)13.8 mph19.6 mph0.09 inFog-RainRain
2:45 PM46.4 °F44.6 °F93 %30.42 in1.0 miSSE (160°)13.8 mph0.11 inOvercast
2:46 PM46.4 °F44.6 °F93 %29.99 in1.5 miSSE (150°)15.0 mph23.0 mph0.11 inRainLight Rain
2:48 PM46.4 °F44.6 °F93 %30.42 in2.0 miSSE (150°)15.0 mph20.7 mph0.11 inOvercast
2:49 PM46.4 °F44.6 °F93 %29.99 in3.0 miSSE (150°)11.5 mph23.0 mph0.11 inRainLight Rain
2:50 PM46.4 °F44.6 °F93 %30.42 in3.0 miSSE (150°)11.5 mph18.4 mph0.11 inOvercast
2:52 PM46.0 °F45.0 °F96 %29.88 in2.5 miSSE (150°)10.4 mph23.0 mph0.11 inRainLight Rain
2:53 PM46.4 °F44.6 °F93 %30.42 in2.5 miSSE (150°)10.4 mph0.11 inOvercast
2:54 PM46.4 °F44.6 °F93 %30.42 in1.5 miSE (140°)8.1 mph10.00 inOvercast
2:55 PM46.4 °F44.6 °F93 %30.42 in1.0 miSE (130°)9.2 mph10.00 in
2:57 PM46.4 °F46.4 °F100 %30.42 in0.8 miSE (130°)10.4 mph16.1 mph0.01 in
3:02 PM46.4 °F46.4 °F100 %29.98 in0.8 miSE (140°)10.4 mph18.4 mph0.01 inRainLight Rain
3:06 PM46.4 °F46.4 °F100 %30.42 in1.0 miSE (130°)8.1 mph0.02 inOvercast
3:11 PM46.4 °F46.4 °F100 %29.98 in1.2 miSE (140°)10.4 mph18.4 mph0.02 inRainLight Rain
3:14 PM46.4 °F46.4 °F100 %29.98 in2.5 miSE (130°)10.4 mph18.4 mph0.03 inRainLight Rain
3:15 PM46.4 °F46.4 °F100 %30.42 in2.5 miSE (130°)10.4 mph0.03 inOvercast
3:19 PM46.4 °F46.4 °F100 %30.42 in1.8 miSE (140°)10.4 mph0.03 inOvercast
3:21 PM46.4 °F46.4 °F100 %29.98 in1.2 miSE (140°)10.4 mph16.1 mph0.03 inRainLight Rain
3:30 PM46.4 °F46.4 °F100 %29.98 in2.0 miSSE (150°)9.2 mph0.03 inRainLight Rain
3:31 PM46.4 °F46.4 °F100 %30.42 in2.0 miSSE (150°)9.2 mph0.03 inOvercast
3:33 PM46.4 °F46.4 °F100 %30.42 in4.0 miSSE (150°)6.9 mph0.03 inOvercast
3:38 PM46.4 °F46.4 °F100 %29.99 in3.0 miSE (140°)6.9 mph0.03 inOvercast
3:52 PM46.9 °F46.9 °F100 %29.89 in7.0 miSSE (160°)11.5 mph18.4 mph0.03 inOvercast
3:55 PM46.4 °F46.4 °F100 %30.42 in5.0 miSouth (180°)12.7 mph10.00 inOvercast
3:57 PM46.4 °F46.4 °F100 %30.42 in1.5 miSouth (170°)9.2 mphOvercast
3:59 PM46.4 °F46.4 °F100 %30.42 in0.8 miSouth (180°)10.4 mphOvercast
4:00 PM46.4 °F46.4 °F100 %30.00 in0.2 miSouth (170°)10.4 mph17.3 mph0.00 inFog-RainLight Rain
4:01 PM46.4 °F46.4 °F100 %30.42 in0.2 miSouth (170°)10.4 mphOvercast
4:55 PM0.0 °F0.0 °FVariable5.8 mph0.03 in
5:08 PM48.2 °F48.2 °F100 %30.00 in0.2 miSSE (150°)6.9 mph0.03 inFogFog
5:29 PM48.2 °F46.4 °F93 %30.00 in0.2 miSSE (160°)13.8 mph0.03 inFogFog
5:52 PM46.9 °F46.9 °F100 %29.89 in0.2 miSSE (160°)11.5 mph16.1 mph0.03 inFog-RainLight Rain
5:55 PM46.4 °F46.4 °F100 %30.42 in0.2 miSSE (150°)9.2 mph9.97 in
6:09 PM46.4 °F46.4 °F100 %30.42 in0.5 miSSE (150°)13.8 mph0.01 in
6:12 PM46.4 °F46.4 °F100 %30.00 in1.0 miSSE (160°)11.5 mph21.9 mph0.01 inRainLight Rain
6:13 PM46.4 °F46.4 °F100 %30.42 in1.0 miSSE (160°)11.5 mph0.01 in
6:14 PM46.4 °F46.4 °F100 %30.00 in2.0 miSSE (160°)10.4 mph21.9 mph0.02 inRainLight Rain
6:15 PM46.4 °F46.4 °F100 %30.42 in2.0 miSSE (160°)10.4 mph0.02 inOvercast
6:16 PM46.4 °F46.4 °F100 %30.42 in3.0 miSSE (150°)10.4 mph0.02 inOvercast
6:21 PM46.4 °F46.4 °F100 %30.00 in4.0 miSE (140°)10.4 mph21.9 mph0.02 inRainLight Rain
6:28 PM46.4 °F46.4 °F100 %30.42 in2.5 miSSE (160°)11.5 mph0.03 inOvercast
6:32 PM46.4 °F46.4 °F100 %30.01 in1.5 miSSE (160°)9.2 mph17.3 mph0.04 inRainLight Rain
6:33 PM46.4 °F46.4 °F100 %30.42 in1.5 miSSE (160°)9.2 mph0.04 inOvercast
6:39 PM46.4 °F46.4 °F100 %30.00 in1.0 miSE (140°)6.9 mph16.1 mph0.04 inRainLight Rain
6:50 PM46.4 °F46.4 °F100 %30.42 in0.8 miSE (140°)6.9 mph0.07 inOvercast
6:52 PM46.0 °F46.0 °F100 %29.90 in1.0 miSE (140°)11.5 mph17.3 mph0.07 inRainLight Rain
6:53 PM46.4 °F46.4 °F100 %30.42 in1.0 miSE (140°)11.5 mph18.4 mph0.07 inOvercast
6:55 PM46.4 °F46.4 °F100 %30.42 in1.0 miSE (140°)13.8 mph10.00 inOvercast
7:00 PM46.4 °F46.4 °F100 %30.42 in0.8 miSE (140°)8.1 mphOvercast
7:01 PM46.4 °F46.4 °F100 %30.42 in1.0 miSE (140°)8.1 mphOvercast
7:03 PM46.4 °F46.4 °F100 %30.42 in0.8 miSE (140°)8.1 mphOvercast
7:08 PM46.4 °F46.4 °F100 %30.00 in0.8 miVariable6.9 mph0.01 inRainLight Rain
7:20 PM46.4 °F46.4 °F100 %30.42 in0.2 miSSE (150°)9.2 mph0.02 in
7:22 PM46.4 °F46.4 °F100 %30.42 in0.5 miSE (140°)9.2 mph0.02 in
7:31 PM46.4 °F46.4 °F100 %30.42 in1.0 miSE (140°)8.1 mph0.04 in
7:32 PM46.4 °F46.4 °F100 %30.42 in0.8 miSE (140°)9.2 mph0.05 in
7:41 PM46.4 °F46.4 °F100 %30.42 in0.2 miSE (140°)8.1 mph0.07 in
7:48 PM46.4 °F46.4 °F100 %30.42 in0.5 miSSE (150°)11.5 mph0.09 in
7:52 PM46.9 °F46.9 °F100 %29.90 in0.5 miSE (140°)8.1 mph16.1 mph0.10 inFog-RainLight Rain
7:55 PM46.4 °F46.4 °F100 %30.42 in0.5 miSSE (150°)6.9 mph10.00 in
8:01 PM46.4 °F46.4 °F100 %30.42 in0.2 miSE (140°)5.8 mph0.01 in
8:06 PM46.4 °F46.4 °F100 %30.00 in0.2 miSSE (150°)5.8 mph0.02 inFog-RainLight Rain
8:18 PM46.4 °F46.4 °F100 %30.42 in0.5 miSE (140°)9.2 mph0.05 in
8:23 PM46.4 °F46.4 °F100 %30.00 in0.5 miSE (140°)8.1 mph0.06 inFog-RainLight Rain
8:39 PM46.4 °F46.4 °F100 %30.42 in1.0 miSE (140°)10.4 mph16.1 mph0.07 in
8:44 PM48.2 °F46.4 °F93 %30.42 in0.8 miSSE (150°)8.1 mph0.08 in
8:52 PM48.0 °F46.9 °F96 %29.89 in0.8 miSE (140°)8.1 mph0.09 inRainLight Rain
8:55 PM48.2 °F46.4 °F93 %30.42 in0.8 miSE (140°)10.4 mph10.00 in
9:03 PM48.2 °F46.4 °F93 %30.42 in1.0 miSE (130°)8.1 mph0.01 in
9:08 PM48.2 °F46.4 °F93 %30.00 in1.0 miSE (140°)8.1 mph19.6 mph0.02 inRainLight Rain
9:13 PM48.2 °F46.4 °F93 %30.42 in0.8 miSSE (150°)9.2 mph0.02 in
9:18 PM48.2 °F46.4 °F93 %30.00 in0.8 miSSE (150°)10.4 mph0.02 inRainLight Rain
9:52 PM48.0 °F48.0 °F100 %29.91 in0.5 miSSE (150°)9.2 mph16.1 mph0.07 inFog-RainRain
9:55 PM48.2 °F48.2 °F100 %30.42 in0.8 miSSE (160°)8.1 mph10.01 in
10:10 PM48.2 °F48.2 °F100 %30.42 in1.0 miSSE (150°)9.2 mph0.05 in
10:16 PM48.2 °F48.2 °F100 %30.42 in0.8 miSSE (150°)9.2 mph0.06 in
10:18 PM48.2 °F48.2 °F100 %30.42 in1.0 miSSE (150°)9.2 mph0.06 in
10:24 PM48.2 °F48.2 °F100 %30.42 in0.8 miSSE (160°)10.4 mph0.07 in
10:26 PM48.2 °F48.2 °F100 %30.42 in1.0 miSSE (150°)10.4 mph0.08 in
10:31 PM48.2 °F48.2 °F100 %30.02 in1.0 miSSE (150°)6.9 mph0.11 inRainRain
10:46 PM48.2 °F48.2 °F100 %30.42 in0.8 miSSE (150°)6.9 mph0.12 in
10:52 PM48.0 °F48.0 °F100 %29.91 in0.8 miSSE (160°)10.4 mph16.1 mph0.14 inRainLight Rain
10:55 PM48.2 °F48.2 °F100 %30.42 in0.8 miSSE (150°)11.5 mph9.99 in
11:21 PM48.2 °F48.2 °F100 %30.42 in0.2 miSSE (160°)13.8 mph0.04 in
11:26 PM48.2 °F48.2 °F100 %30.42 in0.5 miSSE (160°)10.4 mph0.04 in
11:46 PM48.2 °F48.2 °F100 %30.42 in0.2 miSSE (160°)10.4 mph0.07 in
11:52 PM48.0 °F48.0 °F100 %29.92 in0.2 miSouth (170°)10.4 mph0.08 inFog-RainLight Rain
11:55 PM48.2 °F48.2 °F100 %30.42 in0.2 miSSE (160°)9.2 mph10.00 in
11:59 PM48.2 °F48.2 °F100 %30.42 in0.5 miSSE (160°)9.2 mph0.01 in
Hourly data recorded from KBLU, located miles away from Downieville, California







STORIES FROM OUR PARTNERS